{"data":{"norad_id":61974,"epoch":"2026-05-25T04:21:38.676096Z","epoch_age_seconds":68158,"freshness":"FRESH","line1":"1 61974U 24210R   26145.18169764  .00014294  00000+0  52770-3 0  9999","line2":"2 61974  43.0005 108.2493 0000806 263.8172  96.2588 15.27595062 86577","mean_motion":15.27595062,"eccentricity":8.06e-5,"inclination_deg":43.0005,"raan_deg":108.2493,"arg_perigee_deg":263.8172,"mean_anomaly_deg":96.2588,"bstar":0.0005277,"rev_number":8657,"period_min":94.265819248897,"perigee_km":482.45098739948,"apogee_km":483.55700332793,"semimajor_km":6861.1409953637,"source":"CELESTRAK","updated_at":"2026-05-25T13:38:19.515207Z"}}